Regional Weather Roundup
Issued by NWS Austin/San Antonio, TX

Home | Current Version | Previous Version | Text Only | Print | Product List | Glossary On
Versions: 1 2 3 4 5 6 7 8 9 10 11 12 13 14 15 16 17 18 19 20 21 22 23 24 25 26 27 28 29 30 31 32 33 34 35 36 37 38 39 40 41 42 43 44 45 46 47 48 49 50
999
ASUS44 KEWX 230002
RWREWX
SOUTH TEXAS REGIONAL WEATHER ROUNDUP
NATIONAL WEATHER SERVICE AUSTIN/SAN ANTONIO TX
700 PM CDT TUE AUG 22 2017

NOTE: "FAIR" INDICATED FEW OR NO CLOUDS BELOW 12,000 FEET WITH NO
SIGNIFICANT WEATHER AND/OR OBSTRUCTIONS TO VISIBILITY.

* - THESE STATIONS ARE NOT NWS OR FAA STATIONS...AND ARE NOT SUBJECT
    TO NWS AND FAA QUALITY CONTROL.

TXZ171-172-183>190-230100-
TEXAS HILL COUNTRY AND EDWARDS PLATEAU

CITY           SKY/WX    TMP DP  RH WIND       PRES   REMARKS
JUNCTION       MOSUNNY   95  61  32 E10       29.99F HX  95
6HR MIN TEMP:  91; 6HR MAX TEMP:  98;

*LLANO         SUNNY     93  64  38 SE5       30.00S HX  95
BURNET         SUNNY     93  64  38 SE8       30.01S HX  94
6HR MIN TEMP:  90; 6HR MAX TEMP:  96;

*HORSESHOE BAY SUNNY     95  61  32 SE6       29.98F HX  95
6HR MIN TEMP:  92; 6HR MAX TEMP:  98;

*KERRVILLE     SUNNY     92  67  44 S10       30.01F HX  95
6HR MIN TEMP:  88; 6HR MAX TEMP:  94;

*FREDERICKSBRG SUNNY     91  60  35 S8        30.01F HX  90
*ROCKSPRINGS   NOT AVBL
*BOERNE STAGE  SUNNY     90  61  37 S7        30.01F
*CASTROVILLE   SUNNY     95  62  32 SE5       29.98F HX  96
HONDO          SUNNY     95  65  37 SE5       29.96F HX  97
6HR MIN TEMP:  91; 6HR MAX TEMP:  98;

*UVALDE        SUNNY     94  63  35 E6        29.96F HX  95
6HR MIN TEMP:  91; 6HR MAX TEMP:  98;

DEL RIO        SUNNY     98  59  27 E10       29.92F HX  98
6HR MIN TEMP:  92; 6HR MAX TEMP: 101;

LAUGHLIN AFB   MOSUNNY   98  60  28 S14       29.93F HX  98
6HR MIN TEMP:  92; 6HR MAX TEMP: 100;

CARRIZO SPRGS  SUNNY     97  61  30 SE6       29.92S HX  97
*EAGLE PASS    PTCLDY    99  59  26 E9G18     29.93S HX  98
$$

TXZ173-191>194-202-209-217>225-228-230100-
CENTRAL AND SOUTH CENTRAL TEXAS

CITY           SKY/WX    TMP DP  RH WIND       PRES   REMARKS
GEORGETOWN     SUNNY     94  65  38 SE8       29.98F HX  96
6HR MIN TEMP:  91; 6HR MAX TEMP:  97;

AUSTIN/BERGSTM MOSUNNY   97  64  33 E8        29.94F HX  99
6HR MIN TEMP:  92; 6HR MAX TEMP:  99;

AUSTIN/MABRY   MOSUNNY   96  62  32 VRB6      29.96F HX  97
6HR MIN TEMP:  93; 6HR MAX TEMP: 100;

*AUSTIN/EXEC   SUNNY     93  63  36 CALM      29.96F HX  94
*LAGO VISTA    SUNNY     93  60  32 S5        29.99F HX  93
6HR MIN TEMP:  91; 6HR MAX TEMP:  96;

SAN MARCOS     MOSUNNY   96  65  35 SE8       29.95F HX  98
6HR MIN TEMP:  92; 6HR MAX TEMP:  98;

NEW BRAUNFELS  MOSUNNY   96  63  33 SE8       29.94F HX  97
6HR MIN TEMP:  91; 6HR MAX TEMP:  99;

RANDOLPH AFB   SUNNY     93  63  36 S10       29.96F HX  94
6HR MIN TEMP:  89; 6HR MAX TEMP:  97;

PT SAN ANTONIO SUNNY     94  65  38 SE5       29.94F HX  96
6HR MIN TEMP:  89; 6HR MAX TEMP:  95;

SAN ANTONIO    MOSUNNY   94  64  37 CALM      29.97F HX  95
6HR MIN TEMP:  88; 6HR MAX TEMP:  95;

STINSON FIELD  SUNNY     97  65  34 E6        29.93F HX  99
6HR MIN TEMP:  91; 6HR MAX TEMP:  99;

*LA GRANGE     SUNNY     98  64  32 SE6       29.93S HX  99
6HR MIN TEMP:  93; 6HR MAX TEMP: 101;

*GIDDINGS      PTSUNNY   94  63  35 S7        29.96S HX  95
6HR MIN TEMP:  90; 6HR MAX TEMP:  98;

*GONZALES      SUNNY     98  66  34 SE7       29.93F HX 102
$$

TXZ163>164-176>182-195>201-210>213-226-227-235-230100-
SOUTHEAST TEXAS

CITY           SKY/WX    TMP DP  RH WIND       PRES   REMARKS
COLLEGE STN    SUNNY     95  67  39 SE10      29.95S HX  99
6HR MIN TEMP:  92; 6HR MAX TEMP:  99;

*BRYAN         SUNNY     94  66  40 SE12      29.96S HX  97
6HR MIN TEMP:  93; 6HR MAX TEMP: 106;

*CALDWELL      NOT AVBL
*CROCKETT      PTSUNNY   95  68  41 CALM      29.99F HX  99
*BRENHAM       SUNNY     95  64  36 SE9       29.97S HX  96
6HR MIN TEMP:  93; 6HR MAX TEMP:  98;

HUNTSVILLE     SUNNY     94  64  37 VRB3      29.97S HX  95
6HR MIN TEMP:  91; 6HR MAX TEMP:  98;

CONROE         SUNNY     89  69  51 SE6       29.97F HX  93
6HR MIN TEMP:  89; 6HR MAX TEMP:  95;

HOUSTON BUSH   MOSUNNY   91  72  53 SE12      29.97S HX  98
6HR MIN TEMP:  90; 6HR MAX TEMP:  97;

HOUSTON HOBBY  MOSUNNY   91  72  53 S12       29.97S HX  98
6HR MIN TEMP:  91; 6HR MAX TEMP:  98;

*HOUSTON SW AP SUNNY     87  73  62 SE6       29.98S HX  94
6HR MIN TEMP:  84; 6HR MAX TEMP:  96;

PEARLAND       SUNNY     91  70  49 S10       29.99F HX  96
6HR MIN TEMP:  91; 6HR MAX TEMP:  98;

HOUSTON HOOKS  MOSUNNY   91  70  49 S5        29.96F HX  96
6HR MIN TEMP:  91; 6HR MAX TEMP:  97;

ELLINGTON FLD  NOT AVBL
SUGAR LAND     SUNNY     91  73  55 SE10      29.97S HX  99
6HR MIN TEMP:  88; 6HR MAX TEMP:  98;

*HOUSTON EXEC  SUNNY     91  72  52 SE12      29.98S HX  98
*CLEVELAND MUN SUNNY     89  76  65 S6        29.98F HX  99
6HR MIN TEMP:  89; 6HR MAX TEMP:  94;

*WHARTON       SUNNY     87  65  47 SE9       29.98S
6HR MIN TEMP:  87; 6HR MAX TEMP:  95;

*COLUMBUS      FAIR      91  65  41 SE8       29.97S HX  93
6HR MIN TEMP:  91; 6HR MAX TEMP:  97;

*EAGLE LAKE    CLEAR     93  72  49 SE10      29.96S HX 100
6HR MIN TEMP:  92; 6HR MAX TEMP:  98;

$$

TXZ214>216-236>238-230100-
THE UPPER TEXAS COAST

CITY           SKY/WX    TMP DP  RH WIND       PRES   REMARKS
*ORANGE        CLOUDY    88  75  64 S5        30.00F HX  97
6HR MIN TEMP:  79; 6HR MAX TEMP:  90;

PORT ARTHUR    CLOUDY    85  73  67 SE6       29.98F HX  91
6HR MIN TEMP:  76; 6HR MAX TEMP:  89; 6HR PCP:  0.23;

GALVESTON      MOSUNNY   87  77  72 SE12      29.99F HX  99
6HR MIN TEMP:  83; 6HR MAX TEMP:  91; 6HR PCP: TRACE;

ANGLETON       SUNNY     88  75  65 SE9       29.99S HX  97
6HR MIN TEMP:  88; 6HR MAX TEMP:  95;

*BAY CITY      SUNNY     89  72  56 SE10      29.98S HX  96
PALACIOS       SUNNY     85  73  67 SE12      29.97F HX  91
6HR MIN TEMP:  79; 6HR MAX TEMP:  91;

$$

TXZ229>234-239>247-230100-
TEXAS COASTAL BEND AND RIO GRANDE PLAINS

CITY           SKY/WX    TMP DP  RH WIND       PRES   REMARKS
VICTORIA       SUNNY     91  69  48 SE15      29.96F HX  96
6HR MIN TEMP:  91; 6HR MAX TEMP:  99;

*BEEVILLE      SUNNY     84  79  83 SE3       29.96S HX  96
6HR MIN TEMP:  78; 6HR MAX TEMP:  99; 6HR PCP:  0.41;

ROCKPORT       SUNNY     88  74  63 SE14      29.96F HX  96
6HR MIN TEMP:  88; 6HR MAX TEMP:  94;

*PORT ARANSAS  SUNNY     85  75  71 SE10      29.97F HX  94
6HR MIN TEMP:  85; 6HR MAX TEMP:  90;

*PORT LAVACA   SUNNY     88  72  59 SE13      29.97S HX  94
6HR MIN TEMP:  88; 6HR MAX TEMP:  93;

*INGLESIDE     SUNNY     89  75  63 MISG      29.96F HX  98
CORPUS CHRISTI MOSUNNY   90  73  57 SE13G20   29.96F HX  98
6HR MIN TEMP:  89; 6HR MAX TEMP:  95;

CORPUS NAS     MOSUNNY   88  76  67 SE16      29.96F HX  99
6HR MIN TEMP:  88; 6HR MAX TEMP:  94;

*ROBSTOWN      SUNNY     92  68  44 SE14      29.97S HX  96
ALICE            N/A     92  67  43 MISG      29.95S HX  95
6HR MIN TEMP:  92; 6HR MAX TEMP:  98;

KINGSVILLE NAS MOSUNNY   89  74  60 E14G21    29.96S HX  98
6HR MIN TEMP:  83; 6HR MAX TEMP:  96; 6HR PCP:  0.20;

COTULLA        MOSUNNY   97  60  29 SE9       29.92F HX  97
6HR MIN TEMP:  91; 6HR MAX TEMP: 101;

*FAITH RANCH   PTSUNNY   99  63  30 E10       29.93S HX 100
LAREDO         SUNNY     99  65  32 SE12      29.92F HX 102
6HR MIN TEMP:  91; 6HR MAX TEMP: 101;

$$

TXZ248>255-230100-
DEEP SOUTH TEXAS

CITY           SKY/WX    TMP DP  RH WIND       PRES   REMARKS
BROWNSVILLE    MOSUNNY   88  74  63 E15       29.96F HX  96
6HR MIN TEMP:  87; 6HR MAX TEMP:  94;

PORT ISABEL    SUNNY     87  75  67 E14       29.96S HX  96
6HR MIN TEMP:  87; 6HR MAX TEMP:  93;

*SOUTH PADRE   NOT AVBL
HARLINGEN      SUNNY     88  74  63 E15       29.95S HX  96
6HR MIN T



USA.gov is the U.S. government's official web portal to all federal, state and local government web resources and services.